Regional Weather Roundup
Issued by NWS

Home | Current Version | Previous Version | Text Only | Print | Product List | Glossary Off
Versions: 1 2 3 4 5 6 7 8 9 10 11 12 13 14 15 16 17 18 19 20 21 22 23 24 25 26 27 28 29 30 31 32 33 34 35 36 37 38 39 40 41 42 43 44 45 46 47 48 49 50

000
ASUS43 KFSD 210402
RWRSD

WEATHER ROUNDUP FOR SOUTH DAKOTA
NATIONAL WEATHER SERVICE SIOUX FALLS SD
1100 PM CDT MON APR 20 2015

NOTE: "FAIR" INDICATES FEW OR NO CLOUDS BELOW 12,000 FEET WITH NO
SIGNIFICANT WEATHER AND/OR OBSTRUCTIONS TO VISIBILITY.


SDZ001>005-009-010-012>017-210500-
NORTHWEST AND NORTH CENTRAL SOUTH DAKOTA

CITY           SKY/WX    TMP DP  RH WIND       PRES   REMARKS
BUFFALO          N/A     36  19  50 W5        29.80S
FAITH            N/A     34  18  52 NW12      29.85R WCI  25
MOBRIDGE       CLEAR     32  15  49 NW5       29.76S WCI  27
$$

SDZ012>016-024>037-041>051-057-063-072>074-210500-
SOUTHWEST AND SOUTH CENTRAL SOUTH DAKOTA

CITY           SKY/WX    TMP DP  RH WIND       PRES   REMARKS
RAPID CTY ARPT CLEAR     34  22  61 N10       29.90R WCI  26
PIERRE         PTCLDY    43  17  35 NW14      29.80R
CUSTER         CLEAR     32  15  49 W5        29.89R WCI  27
ELLSWORTH AFB  PTCLDY    34  23  65 NW9       29.89R WCI  26
PHILIP         CLOUDY    42  32  67 NW5       29.86R
PINE RIDGE     CLEAR     31  24  75 E6        29.89R WCI  25
WINNER         CLOUDY    44  17  33 W10       29.82R
$$

SDZ004>011-016>023-039-040-210500-
NORTHEAST SOUTH DAKOTA

CITY           SKY/WX    TMP DP  RH WIND       PRES   REMARKS
ABERDEEN       CLEAR     34  23  64 NW8       29.74R WCI  27
WATERTOWN      CLEAR     37  26  64 NW14      29.69S
BROOKINGS      CLEAR     36  27  69 NW10      29.71S
SISSETON         N/A     38  28  67 N18       29.66F
$$

SDZ017-020-022-023-036>040-048>070-210500-
SOUTHEAST SOUTH DAKOTA

CITY           SKY/WX    TMP DP  RH WIND       PRES   REMARKS
SIOUX FALLS    CLEAR     35  22  58 W5        29.73R
HURON          CLEAR     35  13  40 N9        29.75R WCI  28
MITCHELL       CLEAR     40   8  26 NW10      29.76S
YANKTON        CLEAR     43   9  24 W13       29.76S
$$

ABBREVIATIONS USED IN REMARKS
   TC - TEMPERATURE IN CELSIUS
  WCI - WIND CHILL INDEX
   HX - HEAT INDEX
  VSB - VISIBILITY




USA.gov is the U.S. government's official web portal to all federal, state and local government web resources and services.